Location: Florida Caverns State Park
(30.8073°N, 85.2161°W)
Time: 18:26:18
(UTC-04:00)

Envisat - Visible Passes

Search period start: 25 March 2019 00:00
Search period end: 04 April 2019 00:00
Orbit: 764 x 766 km, 98.2° (Epoch: 24 March)

Date Brightness Start Highest point End Pass type
(mag) Time Alt. Az. Time Alt. Az. Time Alt. Az.
25 Mar 4.8 21:05:10 10° SSW 21:09:42 33° W 21:14:17 10° NNW visible
26 Mar 3.1 20:27:50 10° S 20:32:54 84° WSW 20:38:00 10° NNW visible
27 Mar 5.8 21:32:01 10° SW 21:35:22 18° W 21:38:44 10° NW visible
28 Mar 4.3 20:53:39 10° S 20:58:27 43° W 21:03:18 10° NNW visible
29 Mar 3.0 20:16:40 10° SSE 20:21:43 75° ENE 20:26:47 10° N visible
30 Mar 5.4 21:20:06 10° SSW 21:24:05 23° W 21:28:05 10° NW visible
31 Mar 3.7 20:42:15 10° S 20:47:13 57° W 20:52:13 10° NNW visible
01 Apr 6.0 21:47:59 10° WSW 21:49:48 12° W 21:51:37 10° WNW visible
02 Apr 5.0 21:08:24 10° SSW 21:12:49 30° W 21:17:15 10° NW visible
03 Apr 3.2 20:30:57 10° S 20:36:00 76° WSW 20:41:05 10° NNW visible
